Wheeler AAF, HI

1:31 AM HST on June 27, 2017 (GMT -1000)
Wheeler Army Air Field

Weather History for PHHI - May, 2014

Change the Weather History Date:

Friday, May 23, 2014

  Actual Average Record
Temperature  
Mean Temperature 76 °F -  
Max Temperature 84 °F 77 °F 84 °F (2002)
Min Temperature 69 °F 64 °F 60 °F (2000)
Cooling Degree Days 12    
Growing Degree Days 26 (Base 50)    
Moisture  
Dew Point 68 °F    
Average Humidity 79    
Maximum Humidity 95    
Minimum Humidity 57    
Precipitation  
Precipitation 0.01 in - - ()
Sea Level Pressure  
Sea Level Pressure 30.01 in    
Wind  
Wind Speed 3 mph (SSE)    
Max Wind Speed 10 mph    
Max Gust Speed -    
Visibility 10 miles    
Events Rain    
Averages and records for this station are not official NWS values.
T = Trace of Precipitation, MM = Missing Value Source: NWS Daily Summary

Daily Weather History Graph

Daily Weather History Graph

Search for Another Location

Airport or City:

Trip Planner

Search our weather history database for the weather conditions in past years. The results will help you decide how hot, cold, wet, or windy it might be!

Date:

Astronomy

May. 23, 2014 Rise Set
Actual Time 5:50 AM HST 7:07 PM HST
Civil Twilight 5:26 AM HST 7:31 PM HST
Nautical Twilight 4:57 AM HST 8:00 PM HST
Astronomical Twilight 4:28 AM HST 8:30 PM HST
Moon 2:13 AM HST (5/23) 2:46 PM HST (5/23)
Length of Visible Light 14h 04m
Length of Day
13h 16m
Waning Crescent, 25% of the Moon is Illuminated
May 23
Waning Crescent
May 28
New
Jun 5
First Quarter
Jun 12
Full
Jun 19
Last Quarter

Hourly Weather History & Observations

Time (HST) Temp. Heat Index Dew Point Humidity Pressure Visibility Wind Dir Wind Speed Gust Speed Precip Events Conditions
12:58 AM 72.0 °F - 68.7 °F 89% 30.01 in 10.0 mi Calm Calm - N/A   Mostly Cloudy
1:58 AM 71.2 °F - 68.2 °F 90% 29.99 in 10.0 mi Calm Calm - N/A   Scattered Clouds
2:58 AM 69.8 °F - 67.8 °F 93% 29.98 in 10.0 mi WNW 3.5 mph - N/A   Mostly Cloudy
3:58 AM 71.4 °F - 68.2 °F 89% 29.99 in 10.0 mi Calm Calm - N/A   Mostly Cloudy
4:09 AM 69.8 °F - 68.0 °F 94% 30.00 in 10.0 mi Calm Calm - N/A   Light Drizzle
4:14 AM 71.6 °F - 68.0 °F 88% 29.99 in 10.0 mi Calm Calm - N/A   Light Drizzle
4:19 AM 71.6 °F - 68.0 °F 88% 29.99 in 10.0 mi Calm Calm - N/A   Overcast
4:24 AM 71.6 °F - 68.0 °F 88% 29.99 in 10.0 mi South 2.3 mph - N/A   Overcast
4:39 AM 71.6 °F - 68.0 °F 88% 30.00 in 10.0 mi SE 2.3 mph - N/A   Overcast
4:44 AM 71.6 °F - 68.0 °F 88% 29.99 in 10.0 mi Calm Calm - N/A   Mostly Cloudy
4:58 AM 70.9 °F - 68.4 °F 92% 29.96 in 10.0 mi East 2.3 mph - 0.00 in   Overcast
5:58 AM 69.6 °F - 68.2 °F 95% 29.98 in 10.0 mi ENE 2.3 mph - N/A   Mostly Cloudy
6:58 AM 70.3 °F - 68.5 °F 94% 29.99 in 10.0 mi Calm Calm - N/A   Mostly Cloudy
7:58 AM 77.4 °F - 70.0 °F 78% 30.00 in 10.0 mi East 4.6 mph - N/A   Scattered Clouds
8:48 AM 78.8 °F - 69.8 °F 74% 30.04 in 10.0 mi Variable 3.5 mph - N/A   Mostly Cloudy
8:53 AM 78.8 °F - 68.0 °F 69% 30.04 in 10.0 mi Variable 4.6 mph - N/A   Scattered Clouds
8:58 AM 79.0 °F - 68.5 °F 70% 30.01 in 10.0 mi SE 2.3 mph - N/A   Partly Cloudy
9:08 AM 80.6 °F 83.9 °F 69.8 °F 70% 30.04 in 10.0 mi Variable 2.3 mph - N/A   Mostly Cloudy
9:18 AM 80.6 °F 83.2 °F 68.0 °F 65% 30.04 in 10.0 mi Variable 5.8 mph - N/A   Mostly Cloudy
9:53 AM 82.4 °F 85.4 °F 68.0 °F 62% 30.04 in 10.0 mi Variable 4.6 mph - N/A   Mostly Cloudy
9:58 AM 82.6 °F 85.7 °F 68.4 °F 62% 30.01 in 10.0 mi East 5.8 mph - N/A   Mostly Cloudy
10:08 AM 84.2 °F 87.3 °F 68.0 °F 58% 30.04 in 10.0 mi SE 8.1 mph - N/A   Overcast
10:58 AM 82.9 °F 86.3 °F 68.7 °F 62% 30.00 in 10.0 mi SE 8.1 mph - N/A   Mostly Cloudy
11:58 AM 84.2 °F 87.6 °F 68.5 °F 59% 30.01 in 10.0 mi SSE 9.2 mph - N/A   Mostly Cloudy
12:58 PM 82.6 °F 84.7 °F 65.8 °F 57% 30.00 in 10.0 mi SSE 10.4 mph - N/A   Overcast
1:58 PM 81.9 °F 84.2 °F 66.9 °F 60% 30.00 in 10.0 mi SE 9.2 mph - N/A   Mostly Cloudy
2:58 PM 81.0 °F 84.1 °F 69.3 °F 67% 29.99 in 10.0 mi Variable 4.6 mph - N/A   Mostly Cloudy
3:33 PM 78.8 °F - 68.0 °F 69% 30.01 in 10.0 mi Variable 5.8 mph - N/A   Light Drizzle
3:42 PM 78.8 °F - 68.0 °F 69% 30.01 in 10.0 mi Variable 6.9 mph - N/A   Mostly Cloudy
3:58 PM 79.7 °F - 68.0 °F 67% 29.98 in 10.0 mi SSE 8.1 mph - 0.00 in   Mostly Cloudy
4:03 PM 80.6 °F 83.2 °F 68.0 °F 65% 30.01 in 10.0 mi South 10.4 mph - N/A   Mostly Cloudy
4:08 PM 80.6 °F 83.2 °F 68.0 °F 65% 30.00 in 10.0 mi South 8.1 mph - N/A   Mostly Cloudy
4:33 PM 78.8 °F - 68.0 °F 69% 30.00 in 10.0 mi South 8.1 mph - N/A   Overcast
4:38 PM 78.8 °F - 68.0 °F 69% 30.00 in 10.0 mi SSE 8.1 mph - N/A   Overcast
4:48 PM 78.8 °F - 69.8 °F 74% 30.00 in 10.0 mi Variable 4.6 mph - N/A   Overcast
4:58 PM 78.4 °F - 68.9 °F 72% 29.97 in 10.0 mi South 6.9 mph - N/A   Overcast
5:58 PM 77.0 °F - 69.8 °F 78% 29.99 in 10.0 mi South 4.6 mph - N/A   Mostly Cloudy
6:08 PM 77.0 °F - 69.8 °F 78% 30.01 in 10.0 mi South 5.8 mph - N/A   Mostly Cloudy
6:58 PM 75.6 °F - 68.4 °F 78% 29.99 in 10.0 mi South 4.6 mph - N/A   Scattered Clouds
7:41 PM 73.4 °F - 68.0 °F 83% 30.03 in 10.0 mi SSW 1.2 mph - N/A   Light Drizzle
7:46 PM 73.4 °F - 68.0 °F 83% 30.04 in 10.0 mi Calm Calm - N/A   Mostly Cloudy
7:58 PM 73.8 °F - 68.7 °F 84% 30.01 in 10.0 mi South 2.3 mph - 0.00 in   Mostly Cloudy
8:58 PM 73.4 °F - 68.9 °F 86% 30.03 in 10.0 mi SE 2.3 mph - N/A   Mostly Cloudy
9:58 PM 73.9 °F - 69.3 °F 85% 30.04 in 10.0 mi North 1.2 mph - N/A   Mostly Cloudy
10:58 PM 72.1 °F - 68.5 °F 88% 30.04 in 10.0 mi SSE 2.3 mph - N/A   Mostly Cloudy
11:03 PM 71.6 °F - 68.0 °F 88% 30.07 in 10.0 mi SSE 2.3 mph - N/A   Mostly Cloudy
11:08 PM 71.6 °F - 68.0 °F 88% 30.07 in 10.0 mi SE 2.3 mph - N/A   Mostly Cloudy
11:18 PM 73.4 °F - 69.8 °F 88% 30.07 in 10.0 mi SE 4.6 mph - N/A   Mostly Cloudy
11:32 PM 71.6 °F - 69.8 °F 94% 30.07 in 10.0 mi Variable 4.6 mph - N/A   Light Drizzle
11:37 PM 71.6 °F - 69.8 °F 94% 30.07 in 10.0 mi Variable 4.6 mph - N/A   Light Drizzle
11:42 PM 71.6 °F - 69.8 °F 94% 30.07 in 10.0 mi Variable 4.6 mph - N/A   Light Drizzle
11:58 PM 71.1 °F - 68.9 °F 93% 30.03 in 5.0 mi SSW 1.2 mph - 0.01 in Rain Light Rain